• In Uzbekistan
  • List of Countries
  • For 7 days
  • Water Temperature
  • Satellite Maps
  • Weather Map
  • Weather Widgets
  • user-avatar
    Login

    Hourly Weather Przelewice

    Today, 20 February, Wednesday

    Time Temperature Precipitation Wind Pressure Humidity
    00:00 +2°C° 0 mm 5 mps 755 mmHg 89%
    01:00 +3°C° 0 mm 4 mps 755 mmHg 92%
    02:00 +2°C° 0 mm 5 mps 755 mmHg 91%
    03:00 +2°C° 0 mm 5 mps 755 mmHg 89%
    04:00 +2°C° 0 mm 6 mps 755 mmHg 88%
    05:00 +2°C° 0 mm 6 mps 755 mmHg 86%
    06:00 +2°C° 0 mm 6 mps 756 mmHg 84%
    07:00 +3°C° 0 mm 6 mps 756 mmHg 83%
    08:00 +3°C° 0 mm 6 mps 756 mmHg 81%
    09:00 +3°C° 0 mm 6 mps 757 mmHg 80%
    10:00 +4°C° 0 mm 6 mps 757 mmHg 78%
    11:00 +4°C° 0 mm 6 mps 758 mmHg 77%
    12:00 +5°C° 0 mm 5 mps 758 mmHg 76%
    13:00 +6°C° 0 mm 5 mps 758 mmHg 75%
    14:00 +6°C° 0 mm 4 mps 758 mmHg 75%
    15:00 +7°C° 0 mm 3 mps 759 mmHg 76%
    16:00 +7°C° 0 mm 3 mps 759 mmHg 77%
    17:00 +7°C° 0.1 mm 3 mps 759 mmHg 79%
    18:00 +5°C° 0.1 mm 3 mps 759 mmHg 81%
    19:00 +5°C° 0.1 mm 3 mps 760 mmHg 83%
    20:00 +5°C° 0.1 mm 3 mps 760 mmHg 85%
    21:00 +5°C° 0.1 mm 3 mps 760 mmHg 87%
    22:00 +5°C° 0.1 mm 3 mps 760 mmHg 89%
    23:00 +5°C° 0 mm 3 mps 760 mmHg 89%

    Tomorrow, 21 February, Thursday

    Time Temperature Precipitation Wind Pressure Humidity
    00:00 +5°C° 0 mm 3 mps 760 mmHg 89%
    01:00 +4°C° 0 mm 3 mps 760 mmHg 89%
    02:00 +4°C° 0.1 mm 3 mps 760 mmHg 88%
    03:00 +5°C° 0.1 mm 4 mps 760 mmHg 87%
    04:00 +5°C° 0.1 mm 4 mps 760 mmHg 86%
    05:00 +5°C° 0.2 mm 4 mps 759 mmHg 87%
    06:00 +5°C° 0.2 mm 5 mps 759 mmHg 87%
    07:00 +5°C° 0.2 mm 5 mps 759 mmHg 88%
    08:00 +5°C° 0.4 mm 5 mps 759 mmHg 87%
    09:00 +4°C° 0.4 mm 6 mps 759 mmHg 87%
    10:00 +4°C° 0.4 mm 6 mps 759 mmHg 86%
    11:00 +4°C° 0.9 mm 6 mps 759 mmHg 87%
    12:00 +4°C° 0.9 mm 6 mps 759 mmHg 87%
    13:00 +4°C° 0.9 mm 7 mps 759 mmHg 87%
    14:00 +5°C° 0.5 mm 6 mps 758 mmHg 87%
    15:00 +5°C° 0.5 mm 6 mps 758 mmHg 87%
    16:00 +5°C° 0.5 mm 6 mps 758 mmHg 86%
    17:00 +7°C° 0.5 mm 6 mps 758 mmHg 88%
    18:00 +7°C° 0.5 mm 6 mps 758 mmHg 90%
    19:00 +7°C° 0.5 mm 6 mps 758 mmHg 91%
    20:00 +7°C° 0.1 mm 5 mps 759 mmHg 91%
    21:00 +7°C° 0.1 mm 5 mps 759 mmHg 91%
    22:00 +7°C° 0.1 mm 5 mps 759 mmHg 91%
    23:00 +7°C° 0.1 mm 5 mps 760 mmHg 90%

    Day after tomorrow, 22 February, Friday

    Time Temperature Precipitation Wind Pressure Humidity
    00:00 +6°C° 0.1 mm 5 mps 760 mmHg 89%
    01:00 +6°C° 0.1 mm 5 mps 761 mmHg 88%
    02:00 +4°C° 0 mm 6 mps 761 mmHg 88%
    03:00 +4°C° 0 mm 6 mps 762 mmHg 87%
    04:00 +3°C° 0 mm 6 mps 763 mmHg 86%
    05:00 +2°C° 0 mm 6 mps 764 mmHg 84%
    06:00 +1°C° 0 mm 6 mps 765 mmHg 82%
    07:00 -1°C° 0 mm 6 mps 766 mmHg 79%
    08:00 0°C° 0 mm 5 mps 767 mmHg 74%
    09:00 0°C° 0 mm 5 mps 768 mmHg 68%
    10:00 0°C° 0 mm 4 mps 770 mmHg 63%
    11:00 +1°C° 0 mm 4 mps 770 mmHg 60%
    12:00 +1°C° 0 mm 4 mps 771 mmHg 56%
    13:00 +3°C° 0 mm 4 mps 772 mmHg 53%
    14:00 +3°C° 0 mm 4 mps 772 mmHg 54%
    15:00 +3°C° 0 mm 3 mps 772 mmHg 54%
    16:00 +2°C° 0 mm 3 mps 773 mmHg 55%
    17:00 +1°C° 0 mm 3 mps 773 mmHg 60%
    18:00 +1°C° 0 mm 2 mps 773 mmHg 64%
    19:00 -1°C° 0 mm 2 mps 774 mmHg 69%
    20:00 -1°C° 0 mm 2 mps 774 mmHg 70%
    21:00 -2°C° 0 mm 2 mps 775 mmHg 70%
    22:00 -2°C° 0 mm 2 mps 775 mmHg 71%
    23:00 -2°C° 0 mm 2 mps 775 mmHg 68%

    23 February, Saturday

    Time Temperature Precipitation Wind Pressure Humidity
    00:00 -3°C° 0 mm 2 mps 775 mmHg 64%
    01:00 -3°C° 0 mm 2 mps 775 mmHg 61%
    02:00 -3°C° 0 mm 2 mps 775 mmHg 59%
    03:00 -3°C° 0 mm 2 mps 775 mmHg 58%
    04:00 -3°C° 0 mm 2 mps 775 mmHg 56%
    05:00 -4°C° 0 mm 2 mps 775 mmHg 55%
    06:00 -4°C° 0 mm 2 mps 775 mmHg 54%
    07:00 -4°C° 0 mm 2 mps 776 mmHg 54%
    08:00 -3°C° 0 mm 2 mps 776 mmHg 48%
    09:00 -2°C° 0 mm 2 mps 776 mmHg 42%
    10:00 -1°C° 0 mm 3 mps 776 mmHg 35%
    11:00 0°C° 0 mm 3 mps 776 mmHg 32%
    12:00 +2°C° 0 mm 2 mps 776 mmHg 29%
    13:00 +3°C° 0 mm 2 mps 776 mmHg 26%
    14:00 +3°C° 0 mm 2 mps 775 mmHg 28%
    15:00 +4°C° 0 mm 1 mps 775 mmHg 29%
    16:00 +4°C° 0 mm 1 mps 775 mmHg 31%
    17:00 +3°C° 0 mm 1 mps 774 mmHg 33%
    18:00 +2°C° 0 mm 1 mps 774 mmHg 36%
    19:00 +1°C° 0 mm 1 mps 774 mmHg 39%
    20:00 +1°C° 0 mm 1 mps 774 mmHg 39%
    21:00 0°C° 0 mm 1 mps 774 mmHg 39%
    22:00 0°C° 0 mm 1 mps 774 mmHg 40%
    23:00 0°C° 0 mm 1 mps 774 mmHg 40%

    24 February, Sunday

    Time Temperature Precipitation Wind Pressure Humidity
    00:00 0°C° 0 mm 1 mps 774 mmHg 40%
    01:00 0°C° 0 mm 1 mps 774 mmHg 40%
    02:00 0°C° 0 mm 1 mps 773 mmHg 40%
    03:00 0°C° 0 mm 1 mps 773 mmHg 40%
    04:00 0°C° 0 mm 1 mps 773 mmHg 40%
    05:00 0°C° 0 mm 1 mps 773 mmHg 40%
    06:00 0°C° 0 mm 1 mps 773 mmHg 40%
    07:00 0°C° 0 mm 1 mps 773 mmHg 40%
    08:00 +1°C° 0 mm 1 mps 773 mmHg 37%
    09:00 +2°C° 0 mm 1 mps 773 mmHg 34%
    10:00 +3°C° 0 mm 1 mps 773 mmHg 31%
    11:00 +5°C° 0 mm 1 mps 773 mmHg 31%
    12:00 +6°C° 0 mm 1 mps 772 mmHg 31%
    13:00 +7°C° 0 mm 1 mps 772 mmHg 30%
    14:00 +7°C° 0 mm 1 mps 772 mmHg 35%
    15:00 +7°C° 0 mm 1 mps 772 mmHg 40%
    16:00 +6°C° 0 mm 1 mps 771 mmHg 45%
    17:00 +5°C° 0 mm 1 mps 772 mmHg 48%
    18:00 +4°C° 0 mm 1 mps 772 mmHg 51%
    19:00 +3°C° 0 mm 1 mps 772 mmHg 54%
    20:00 +2°C° 0 mm 1 mps 772 mmHg 54%
    21:00 +2°C° 0 mm 1 mps 772 mmHg 55%
    22:00 +2°C° 0 mm 1 mps 772 mmHg 56%
    23:00 +2°C° 0 mm 1 mps 772 mmHg 57%

    25 February, Monday

    Time Temperature Precipitation Wind Pressure Humidity
    00:00 +2°C° 0 mm 1 mps 772 mmHg 58%
    01:00 +2°C° 0 mm 1 mps 772 mmHg 59%
    02:00 +2°C° 0 mm 1 mps 772 mmHg 61%
    03:00 +1°C° 0 mm 2 mps 772 mmHg 63%
    04:00 +1°C° 0 mm 2 mps 772 mmHg 65%
    05:00 -1°C° 0 mm 2 mps 772 mmHg 67%
    06:00 -1°C° 0 mm 2 mps 772 mmHg 68%
    07:00 -1°C° 0 mm 2 mps 772 mmHg 70%
    08:00 +1°C° 0 mm 2 mps 772 mmHg 68%
    09:00 +2°C° 0 mm 3 mps 772 mmHg 67%
    10:00 +3°C° 0 mm 3 mps 773 mmHg 65%
    11:00 +5°C° 0 mm 3 mps 773 mmHg 67%
    12:00 +7°C° 0 mm 3 mps 772 mmHg 68%
    13:00 +8°C° 0 mm 3 mps 772 mmHg 69%
    14:00 +8°C° 0 mm 3 mps 772 mmHg 69%
    15:00 +8°C° 0 mm 3 mps 772 mmHg 70%
    16:00 +8°C° 0 mm 2 mps 772 mmHg 71%
    17:00 +7°C° 0 mm 2 mps 772 mmHg 76%
    18:00 +5°C° 0 mm 2 mps 772 mmHg 81%
    19:00 +4°C° 0 mm 2 mps 772 mmHg 86%
    20:00 +4°C° 0 mm 1 mps 772 mmHg 86%
    21:00 +4°C° 0 mm 1 mps 772 mmHg 86%
    22:00 +3°C° 0 mm 1 mps 773 mmHg 86%
    23:00 +3°C° 0 mm 1 mps 772 mmHg 85%
    Show more